Akron, CO

5:05 PM MST on December 04, 2016 (GMT -0700)
Akron-Washington County

Weather History for KAKO - March, 2015

Change the Weather History Date:

Wednesday, March 4, 2015

  Actual Average Record
Temperature  
Mean Temperature 16 °F 36 °F  
Max Temperature 23 °F 49 °F 75 °F (2009)
Min Temperature 8 °F 24 °F -15 °F (1960)
Degree Days  
Heating Degree Days 49    
Month to date heating degree days 170  
Cooling Degree Days 0    
Month to date cooling degree days 0  
Moisture  
Dew Point 8 °F    
Average Humidity 69    
Maximum Humidity 92    
Minimum Humidity 45    
Precipitation  
Precipitation 0.01 in 0.02 in 0.50 in (1981)
Month to date precipitation 0.01 0.08  
Year to date precipitation 0.29 0.82  
Sea Level Pressure  
Sea Level Pressure 30.20 in    
Wind  
Wind Speed 10 mph (North)    
Max Wind Speed 17 mph    
Max Gust Speed 20 mph    
Visibility 5 miles    
Events Snow    
T = Trace of Precipitation, MM = Missing Value Source: NWS Daily Summary

Daily Weather History Graph

Daily Weather History Graph

Search for Another Location

Airport or City:

Trip Planner

Search our weather history database for the weather conditions in past years. The results will help you decide how hot, cold, wet, or windy it might be!

Date:

Astronomy

Mar. 04, 2015 Rise Set
Actual Time 6:22 AM MST 5:47 PM MST
Civil Twilight 5:54 AM MST 6:14 PM MST
Nautical Twilight 5:23 AM MST 6:46 PM MST
Astronomical Twilight 4:52 AM MST 7:17 PM MST
Moon 5:07 PM MST (3/4) 5:37 AM MST (3/4)
Length of Visible Light 12h 20m
Length of Day
11h 25m
Waxing Gibbous, 99% of the Moon is Illuminated
Mar 4
Waxing Gibbous
Mar 5
Full
Mar 13
Last Quarter
Mar 20
New
Mar 27
First Quarter

Hourly Weather History & Observations

Time (MST) Temp. Windchill Dew Point Humidity Pressure Visibility Wind Dir Wind Speed Gust Speed Precip Events Conditions
12:06 AM 12.9 °F -2.2 °F 10.0 °F 88% 29.99 in 2.5 mi NNE 13.8 mph - 0.00 in Snow Light Snow
12:50 AM 12.2 °F -1.8 °F 10.4 °F 92% 29.99 in 3.0 mi NE 11.5 mph - 0.00 in Snow Light Snow
12:53 AM 12.9 °F -0.9 °F 10.0 °F 88% 30.16 in 3.0 mi NE 11.5 mph - 0.00 in Snow Light Snow
1:02 AM 12.9 °F -0.9 °F 10.0 °F 88% 30.00 in 2.5 mi NE 11.5 mph - 0.00 in Snow Light Snow
1:13 AM 12.9 °F 0.7 °F 10.0 °F 88% 30.00 in 3.0 mi NE 9.2 mph - 0.00 in Snow Light Snow
1:32 AM 12.9 °F -0.9 °F 10.0 °F 88% 30.01 in 2.5 mi NE 11.5 mph - 0.00 in Snow Light Snow
1:51 AM 12.2 °F -1.0 °F 10.4 °F 92% 30.02 in 1.5 mi NE 10.4 mph - 0.00 in Snow Light Snow
1:53 AM 12.9 °F -1.6 °F 10.0 °F 88% 30.18 in 1.5 mi NNE 12.7 mph - 0.00 in Snow Light Snow
2:09 AM 12.9 °F -1.6 °F 10.0 °F 88% 30.02 in 1.2 mi NE 12.7 mph - 0.00 in Snow Light Snow
2:18 AM 12.0 °F -3.4 °F 10.0 °F 92% 30.02 in 1.2 mi NE 13.8 mph - 0.00 in Snow Light Snow
2:24 AM 12.0 °F -2.7 °F 10.0 °F 92% 30.02 in 2.0 mi NNE 12.7 mph - 0.00 in Snow Light Snow
2:53 AM 12.0 °F 0.5 °F 10.0 °F 92% 30.20 in 1.5 mi NNE 8.1 mph - 0.00 in Snow Light Snow
3:01 AM 12.0 °F 0.5 °F 10.0 °F 92% 30.03 in 1.2 mi NNE 8.1 mph - 0.00 in Snow Light Snow
3:16 AM 12.0 °F 0.5 °F 10.0 °F 92% 30.04 in 1.5 mi North 8.1 mph - 0.00 in Snow Light Snow
3:45 AM 12.0 °F -0.4 °F 10.0 °F 92% 30.06 in 1.2 mi North 9.2 mph - 0.00 in Snow Light Snow
3:53 AM 12.0 °F -0.4 °F 10.0 °F 92% 30.23 in 1.0 mi North 9.2 mph - 0.00 in Snow Light Snow
4:00 AM 12.0 °F 0.5 °F 10.0 °F 92% 30.06 in 1.2 mi North 8.1 mph - 0.00 in Snow Light Snow
4:08 AM 12.0 °F 0.5 °F 10.0 °F 92% 30.07 in 1.8 mi North 8.1 mph - 0.00 in Snow Light Snow
4:42 AM 12.0 °F 0.5 °F 10.0 °F 92% 30.08 in 1.2 mi North 8.1 mph - 0.00 in Snow Light Snow
4:53 AM 12.0 °F 1.5 °F 10.0 °F 92% 30.26 in 1.2 mi North 6.9 mph - 0.01 in Snow Light Snow
5:01 AM 12.0 °F 0.5 °F 10.0 °F 92% 30.09 in 2.0 mi North 8.1 mph - 0.00 in Snow Light Snow
5:13 AM 12.0 °F 1.5 °F 10.0 °F 92% 30.10 in 1.5 mi North 6.9 mph - 0.00 in Snow Light Snow
5:37 AM 12.0 °F 0.5 °F 9.0 °F 88% 30.11 in 2.5 mi NNE 8.1 mph - 0.00 in Snow Light Snow
5:43 AM 12.0 °F 1.5 °F 9.0 °F 88% 30.11 in 3.0 mi NNE 6.9 mph - 0.00 in Snow Light Snow
5:53 AM 12.0 °F 1.5 °F 9.0 °F 88% 30.29 in 3.0 mi NNE 6.9 mph - 0.00 in Snow Light Snow
6:53 AM 10.0 °F -1.9 °F 8.1 °F 92% 30.32 in 10.0 mi WNW 8.1 mph - 0.00 in   Overcast
7:53 AM 10.9 °F 0.2 °F 7.0 °F 84% 30.36 in 10.0 mi WNW 6.9 mph - N/A   Partly Cloudy
8:53 AM 14.0 °F 2.0 °F 6.1 °F 71% 30.36 in 10.0 mi West 9.2 mph - N/A   Partly Cloudy
9:53 AM 16.0 °F 10.4 °F 1.0 °F 52% 30.35 in 10.0 mi Variable 3.5 mph - N/A   Mostly Cloudy
10:53 AM 18.0 °F 8.7 °F 1.9 °F 50% 30.35 in 10.0 mi NW 6.9 mph - N/A   Clear
11:53 AM 19.9 °F 9.3 °F 3.9 °F 50% 30.35 in 10.0 mi NW 9.2 mph - N/A   Clear
12:53 PM 21.0 °F 10.6 °F 5.0 °F 50% 30.32 in 10.0 mi North 9.2 mph - N/A   Clear
1:53 PM 21.9 °F 15.7 °F 3.0 °F 44% 30.30 in 10.0 mi NNW 4.6 mph - N/A   Partly Cloudy
2:53 PM 23.0 °F 13.1 °F 5.0 °F 46% 30.30 in 10.0 mi WNW 9.2 mph - N/A   Partly Cloudy
3:53 PM 21.9 °F 11.7 °F 7.0 °F 53% 30.32 in 10.0 mi NW 9.2 mph - N/A   Overcast
4:53 PM 21.9 °F 11.0 °F 7.0 °F 53% 30.32 in 10.0 mi West 10.4 mph - N/A   Partly Cloudy
5:53 PM 19.0 °F 6.8 °F 9.0 °F 65% 30.36 in 10.0 mi WSW 11.5 mph - N/A   Clear
6:53 PM 17.1 °F 4.3 °F 9.0 °F 71% 30.40 in 10.0 mi WSW 11.5 mph - N/A   Clear
7:53 PM 15.1 °F 0.5 °F 9.0 °F 77% 30.43 in 10.0 mi WSW 13.8 mph - N/A   Clear
8:53 PM 12.9 °F -1.6 °F 8.1 °F 81% 30.44 in 10.0 mi SW 12.7 mph - N/A   Clear
9:53 PM 12.9 °F -1.6 °F 7.0 °F 77% 30.44 in 10.0 mi SW 12.7 mph - N/A   Clear
10:53 PM 12.0 °F -2.0 °F 6.1 °F 77% 30.44 in 10.0 mi SW 11.5 mph - N/A   Clear
11:53 PM 12.0 °F -2.7 °F 6.1 °F 77% 30.42 in 10.0 mi SW 12.7 mph - N/A   Clear